User: anonymous   Login
Location: Foulognes
(49.1413°N, 0.8183°W)
Time: 05:32:56
(UTC+00:00)
Language:

STARLINK-28 - Orbit

View from above orbital plane
View from above orbital plane
View from above satellite
View from above satellite

Ground track
Ground track

The orbit data is extracted from the following two-line orbital elements,

1 44242U 19029H   19349.91667824  .00315918  00000-0  17384-1 0  9997
2 44242  52.9987 326.8105 0001571  79.9797 187.2002 15.12065673 31173
Epoch (UTC): 15 December 2019 22:00:01
Eccentricity: 0.0001571
inclination: 52.9987°
perigee height: 529 km
apogee height: 531 km
right ascension of ascending node: 326.8105°
argument of perigee: 79.9797°
revolutions per day: 15.12065673
mean anomaly at epoch: 187.2002°
orbit number at epoch: 3117

The dashed part of the orbit path shows where the satellite is in the earth's shadow,  

DLR